Atlanta Fulton, GA

8:28 PM EST on November 15, 2019 (GMT -0500)
Fulton County-Brown

Weather History for KFTY - September, 2019

Change the Weather History Date:

Saturday, September 14, 2019

  Actual Average Record
Temperature  
Mean Temperature 80 °F 74 °F  
Max Temperature 87 °F 84 °F 94 °F (2018)
Min Temperature 72 °F 63 °F 48 °F (2015)
Degree Days  
Heating Degree Days 0 0  
Month to date heating degree days 0 0  
Since 1 July heating degree days 0 0  
Cooling Degree Days 15 9  
Month to date cooling degree days 233 144  
Year to date cooling degree days 1949 1581  
Growing Degree Days 28 (Base 50)    
Moisture  
Dew Point 69 °F    
Average Humidity 74    
Maximum Humidity 93    
Minimum Humidity 55    
Precipitation  
Precipitation 0.10 in 0.13 in 1.94 in (2003)
Month to date precipitation 1.61 1.77  
Year to date precipitation 31.90 37.19  
Sea Level Pressure  
Sea Level Pressure 30.20 in    
Wind  
Wind Speed 6 mph (NE)    
Max Wind Speed 14 mph    
Max Gust Speed 19 mph    
Visibility 10 miles    
Events Rain , Thunderstorm    
T = Trace of Precipitation, MM = Missing Value Source: NWS Daily Summary

Daily Weather History Graph

Daily Weather History Graph

Search for Another Location

Airport or City:

Astronomy

Sep. 14, 2019 Rise Set
Actual Time 7:20 AM EDT 7:46 PM EDT
Civil Twilight 6:55 AM EDT 8:11 PM EDT
Nautical Twilight 6:26 AM EDT 8:40 PM EDT
Astronomical Twilight 5:56 AM EDT 9:10 PM EDT
Moon 8:26 PM EDT (9/14) 7:35 AM EDT (9/14)
Length of Visible Light 13h 15m
Length of Day
12h 25m
Full, 100% of the Moon is Illuminated
Sep 14
Full
Sep 21
Last Quarter
Sep 28
New
Oct 5
First Quarter
Oct 13
Full

Hourly Weather History & Observations

Time (EDT) Temp. Heat Index Dew Point Humidity Pressure Visibility Wind Dir Wind Speed Gust Speed Precip Events Conditions
12:01 AM 72.0 °F - 69.1 °F 91% 30.24 in 5.0 mi NNE 6.9 mph - 0.04 in Rain , Thunderstorm Rain
12:17 AM 72.0 °F - 70.0 °F 93% 30.24 in 10.0 mi NNE 6.9 mph - 0.11 in Rain Light Rain
12:53 AM 72.0 °F - 70.0 °F 93% 30.20 in 10.0 mi NNE 3.5 mph - 0.22 in Rain Light Rain
1:53 AM 72.0 °F - 69.1 °F 91% 30.18 in 10.0 mi ESE 5.8 mph - 0.11 in   Clear
2:45 AM 72.0 °F - 70.0 °F 93% 30.22 in 10.0 mi NNW 8.1 mph - 0.01 in   Mostly Cloudy
2:53 AM 72.0 °F - 70.0 °F 93% 30.19 in 10.0 mi North 6.9 mph - 0.01 in   Mostly Cloudy
3:05 AM 72.0 °F - 70.0 °F 93% 30.22 in 10.0 mi North 5.8 mph - N/A   Overcast
3:12 AM 72.0 °F - 70.0 °F 93% 30.22 in 10.0 mi North 4.6 mph - N/A   Overcast
3:48 AM 71.6 °F - 69.8 °F 94% 30.21 in 10.0 mi NE 3.5 mph - N/A   Mostly Cloudy
3:53 AM 72.0 °F - 70.0 °F 93% 30.18 in 10.0 mi East 4.6 mph - N/A   Mostly Cloudy
4:53 AM 72.0 °F - 69.1 °F 91% 30.17 in 10.0 mi ENE 4.6 mph - N/A   Clear
5:31 AM 72.0 °F - 69.1 °F 91% 30.20 in 10.0 mi NE 5.8 mph - N/A   Partly Cloudy
5:43 AM 72.0 °F - 70.0 °F 93% 30.21 in 9.0 mi North 4.6 mph - N/A   Mostly Cloudy
5:53 AM 72.0 °F - 70.0 °F 93% 30.18 in 10.0 mi North 4.6 mph - N/A   Overcast
6:45 AM 72.0 °F - 70.0 °F 93% 30.22 in 10.0 mi ENE 5.8 mph - N/A   Overcast
6:53 AM 73.0 °F - 69.1 °F 87% 30.19 in 10.0 mi ENE 6.9 mph - N/A   Overcast
7:53 AM 72.0 °F - 69.1 °F 91% 30.21 in 10.0 mi NNE 4.6 mph - N/A   Scattered Clouds
8:01 AM 72.0 °F - 70.0 °F 93% 30.24 in 9.0 mi NNE 4.6 mph - N/A   Mostly Cloudy
8:51 AM 73.4 °F - 69.8 °F 88% 30.25 in 10.0 mi ENE 5.8 mph - N/A   Mostly Cloudy
9:53 AM 75.9 °F - 70.0 °F 82% 30.24 in 10.0 mi ENE 5.8 mph - N/A   Mostly Cloudy
10:27 AM 77.0 °F - 70.0 °F 79% 30.27 in 10.0 mi ENE 9.2 mph - N/A   Overcast
10:53 AM 78.1 °F - 70.0 °F 76% 30.24 in 10.0 mi East 9.2 mph - N/A   Overcast
11:19 AM 81.0 °F 84.4 °F 70.0 °F 69% 30.26 in 10.0 mi NE 9.2 mph - N/A   Partly Cloudy
11:45 AM 82.9 °F 86.5 °F 69.1 °F 63% 30.26 in 10.0 mi NE 8.1 mph - N/A   Mostly Cloudy
11:53 AM 82.0 °F 85.9 °F 70.0 °F 67% 30.23 in 10.0 mi NE 9.2 mph - N/A   Mostly Cloudy
12:21 PM 82.9 °F 87.0 °F 70.0 °F 65% 30.25 in 10.0 mi ENE 8.1 mph - N/A   Mostly Cloudy
12:53 PM 82.9 °F 86.5 °F 69.1 °F 63% 30.23 in 10.0 mi NE 5.8 mph - N/A   Scattered Clouds
1:53 PM 84.0 °F 87.8 °F 69.1 °F 61% 30.20 in 10.0 mi NE 12.7 mph - N/A   Mostly Cloudy
2:53 PM 84.9 °F 88.2 °F 68.0 °F 57% 30.19 in 10.0 mi East 10.4 mph - N/A   Mostly Cloudy
3:53 PM 84.9 °F 87.6 °F 66.9 °F 55% 30.15 in 10.0 mi East 5.8 mph - N/A   Partly Cloudy
4:53 PM 84.9 °F 87.6 °F 66.9 °F 55% 30.15 in 10.0 mi ENE 8.1 mph - N/A   Partly Cloudy
5:53 PM 84.9 °F 87.1 °F 66.0 °F 53% 30.14 in 10.0 mi East 5.8 mph - N/A   Clear
6:53 PM 84.9 °F 87.6 °F 66.9 °F 55% 30.14 in 10.0 mi ENE 6.9 mph - N/A   Partly Cloudy
7:53 PM 82.9 °F 85.8 °F 68.0 °F 60% 30.14 in 10.0 mi East 5.8 mph - N/A   Clear
8:53 PM 81.0 °F 84.1 °F 69.1 °F 67% 30.15 in 10.0 mi Calm Calm - N/A   Clear
9:53 PM 78.1 °F - 69.1 °F 74% 30.17 in 10.0 mi NE 5.8 mph - N/A   Clear
10:53 PM 75.0 °F - 68.0 °F 79% 30.15 in 10.0 mi North 3.5 mph - N/A   Clear
11:53 PM 73.9 °F - 68.0 °F 82% 30.16 in 10.0 mi NE 4.6 mph - N/A   Clear